User: anonymous   Login
Location: Katowice
(50.2611°N, 19.0242°E)
Time: 05:46:49
(UTC+02:00)
Language:

Altair - Orbit

View from above orbital plane
View from above orbital plane
View from above satellite
View from above satellite

Ground track
Ground track

The orbit data is extracted from the following two-line orbital elements,

1    50U 60009B   19198.82723191 -.00000098 +00000-0 -10446-3 0  9998
2    50 047.2323 082.9381 0113947 045.2689 315.7310 12.20109336629248
Epoch (UTC): 17 July 2019 19:51:12
Eccentricity: 0.0113947
inclination: 47.2323°
perigee height: 1501 km
apogee height: 1683 km
right ascension of ascending node: 82.9381°
argument of perigee: 45.2689°
revolutions per day: 12.20109336
mean anomaly at epoch: 315.7310°
orbit number at epoch: 62924

The dashed part of the orbit path shows where the satellite is in the earth's shadow,  

DLR